Location: Brahman Valley
(40.6513°N, 111.8855°W)
Time: 12:24:02
(UTC+00:00)

S-56A Canister/Altair - All Passes

Search period start: 13 May 2021 00:00
Search period end: 23 May 2021 00:00
Orbit: 631 x 2501 km, 38.9° (Epoch: 12 May)

Date Brightness Start Highest point End Pass type
(mag) Time Alt. Az. Time Alt. Az. Time Alt. Az.
13 May - 01:19:45 10° W 01:35:05 83° S 01:47:23 10° E daylight
13 May - 03:27:11 10° W 03:41:28 71° SSW 03:51:35 10° ESE visible
13 May - 05:35:10 10° W 05:45:47 34° SW 05:53:27 10° SSE visible
13 May - 20:38:38 10° S 20:49:36 30° SE 21:01:32 10° E daylight
13 May - 22:40:31 10° SW 22:54:45 62° SSE 23:08:51 10° ENE daylight
14 May - 00:46:09 10° W 01:01:28 83° S 01:14:24 10° E daylight
14 May - 02:53:23 10° W 03:08:08 75° SSW 03:18:56 10° ESE visible
14 May - 05:01:11 10° WNW 05:12:54 40° SW 05:21:19 10° SSE visible
14 May - 20:06:25 10° S 20:16:26 26° SE 20:27:34 10° E daylight
14 May - 22:07:29 10° SW 22:21:12 58° SSE 22:35:29 10° ENE daylight
15 May - 00:12:37 10° WSW 00:27:50 82° S 00:41:21 10° E daylight
15 May - 02:19:37 10° W 02:34:42 78° SSW 02:46:12 10° ESE daylight
15 May - 04:27:16 10° WNW 04:39:55 45° SW 04:49:03 10° SSE visible
15 May - 06:38:30 10° WSW 06:42:37 13° WSW 06:46:17 10° SSW visible
15 May - 19:34:24 10° S 19:43:20 22° SE 19:53:21 10° E daylight
15 May - 21:34:34 10° SW 21:47:43 54° SSE 22:02:01 10° ENE daylight
15 May - 23:39:12 10° WSW 23:54:10 80° S 00:08:12 10° E daylight
16 May - 01:45:55 10° W 02:01:12 80° SSW 02:13:22 10° ESE daylight
16 May - 03:53:23 10° WNW 04:06:51 51° SSW 04:16:42 10° SE visible
16 May - 06:03:18 10° W 06:09:57 17° SW 06:15:31 10° SSW visible
16 May - 19:02:42 10° SSE 19:10:19 18° SE 19:18:53 10° E daylight
16 May - 21:01:47 10° SW 21:14:17 50° SE 21:28:27 10° ENE daylight
16 May - 23:05:53 10° WSW 23:20:29 78° SSE 23:34:57 10° E daylight
17 May - 01:12:17 10° W 01:27:36 82° S 01:40:26 10° ESE daylight
17 May - 03:19:33 10° WNW 03:33:39 56° SSW 03:44:12 10° SE visible
17 May - 05:28:42 10° W 05:37:13 21° SW 05:44:06 10° S visible
17 May - 18:31:29 10° SSE 18:37:22 15° SE 18:43:56 10° E daylight
17 May - 20:29:08 10° SSW 20:40:55 45° SE 20:54:48 10° ENE daylight
17 May - 22:32:40 10° WSW 22:46:49 76° SSE 23:01:37 10° E daylight
18 May - 00:38:43 10° W 00:53:58 83° S 01:07:25 10° E daylight
18 May - 02:45:46 10° WNW 03:00:22 60° SSW 03:11:38 10° SE visible
18 May - 04:54:20 10° W 05:04:23 25° SW 05:12:22 10° S visible
18 May - 18:01:24 10° SE 18:04:32 11° ESE 18:07:51 10° ESE daylight
18 May - 19:56:37 10° SSW 20:07:39 41° SE 20:21:01 10° ENE daylight
18 May - 21:59:34 10° WSW 22:13:12 73° SSE 22:28:11 10° E daylight
19 May - 00:05:14 10° W 00:20:17 84° S 00:34:17 10° E daylight
19 May - 02:12:04 10° WNW 02:26:58 65° SSW 02:38:56 10° SE daylight
19 May - 04:20:09 10° W 04:31:27 30° SW 04:40:23 10° S visible
19 May - 19:24:14 10° SSW 19:34:29 36° SE 19:47:09 10° E daylight
19 May - 21:26:36 10° WSW 21:39:37 70° SSE 21:54:41 10° E daylight
19 May - 23:31:51 10° W 23:46:35 84° S 00:01:04 10° E daylight
20 May - 01:38:25 10° W 01:53:30 69° SSW 02:06:07 10° ESE daylight
20 May - 03:46:07 10° W 03:58:26 35° SW 04:08:14 10° SSE visible
20 May - 18:52:01 10° SSW 19:01:24 31° SE 19:13:09 10° E daylight
20 May - 20:53:43 10° SW 21:06:06 66° SSE 21:21:05 10° E daylight
20 May - 22:58:34 10° W 23:12:52 84° S 23:27:44 10° E daylight
21 May - 01:04:51 10° W 01:19:57 72° SSW 01:33:12 10° ESE daylight
21 May - 03:12:12 10° WNW 03:25:19 39° SW 03:35:55 10° SSE visible
21 May - 05:27:28 10° WSW 05:28:14 10° WSW 05:29:00 10° SW visible
21 May - 18:19:58 10° S 18:28:26 27° SE 18:39:01 10° E daylight
21 May - 20:20:58 10° SW 20:32:40 62° SSE 20:47:24 10° ENE daylight
21 May - 22:25:23 10° W 22:39:11 83° S 22:54:20 10° E daylight
22 May - 00:31:22 10° W 00:46:20 75° SSW 01:00:10 10° ESE daylight
22 May - 02:38:22 10° WNW 02:52:05 44° SW 03:03:28 10° SSE daylight
22 May - 04:49:47 10° W 04:55:26 14° WSW 05:00:34 10° SSW visible
22 May - 17:48:08 10° S 17:55:33 22° SE 18:04:44 10° E daylight
22 May - 19:48:19 10° SW 19:59:19 57° SSE 20:13:40 10° ENE daylight
22 May - 21:52:18 10° WSW 22:05:31 82° S 22:20:49 10° E daylight
